TimeEDT,TemperatureF,Dew PointF,Humidity,Sea Level PressureIn,VisibilityMPH,Wind Direction,Wind SpeedMPH,Gust SpeedMPH,PrecipitationIn,Events,Conditions,WindDirDegrees,DateUTC
12:15 AM,32.4,21.4,64,29.91,10.0,North,-9999.0,-,N/A,,Mostly Cloudy,0,2013-03-21 04:15:00
12:35 AM,32.0,21.4,65,29.91,10.0,North,-9999.0,-,N/A,,Mostly Cloudy,0,2013-03-21 04:35:00
12:55 AM,32.0,19.8,61,29.91,10.0,North,-9999.0,-,N/A,,Overcast,0,2013-03-21 04:55:00
1:35 AM,32.0,19.8,61,29.91,10.0,North,-9999.0,-,N/A,,Overcast,0,2013-03-21 05:35:00
2:15 AM,30.9,17.4,57,29.90,10.0,North,-9999.0,-,N/A,,Overcast,0,2013-03-21 06:15:00
2:35 AM,30.4,16.9,57,29.90,10.0,North,-9999.0,-,N/A,,Overcast,0,2013-03-21 06:35:00
2:55 AM,30.2,17.8,60,29.89,10.0,North,-9999.0,-,N/A,,Overcast,0,2013-03-21 06:55:00
3:15 AM,29.8,17.2,59,29.89,10.0,North,-9999.0,-,N/A,,Overcast,0,2013-03-21 07:15:00
3:35 AM,29.5,17.1,60,29.89,10.0,North,-9999.0,-,N/A,,Overcast,0,2013-03-21 07:35:00
3:55 AM,28.9,17.8,63,29.89,10.0,North,-9999.0,-,N/A,,Overcast,0,2013-03-21 07:55:00
4:15 AM,27.7,23.0,83,29.89,2.5,North,-9999.0,-,N/A,Snow,Light Snow,0,2013-03-21 08:15:00
4:35 AM,25.9,24.1,93,29.89,0.8,North,-9999.0,-,N/A,Snow,Snow,0,2013-03-21 08:35:00
4:55 AM,25.3,23.7,94,29.87,4.0,North,-9999.0,-,N/A,Snow,Light Snow,0,2013-03-21 08:55:00
5:15 AM,25.3,23.5,93,29.87,0.8,North,-9999.0,-,N/A,Snow,Snow,0,2013-03-21 09:15:00
5:35 AM,24.6,22.6,92,29.88,1.2,North,-9999.0,-,N/A,Snow,Light Snow,0,2013-03-21 09:35:00
5:55 AM,24.6,22.1,90,29.89,4.0,North,-9999.0,-,N/A,Snow,Light Snow,0,2013-03-21 09:55:00
6:15 AM,24.4,21.7,89,29.89,3.0,North,-9999.0,-,N/A,Snow,Light Snow,0,2013-03-21 10:15:00
6:35 AM,24.3,21.9,91,29.88,2.0,North,-9999.0,-,N/A,Snow,Light Snow,0,2013-03-21 10:35:00
6:55 AM,23.9,21.7,91,29.89,2.0,North,-9999.0,-,N/A,Snow,Light Snow,0,2013-03-21 10:55:00
7:15 AM,23.4,19.8,86,29.89,3.0,North,-9999.0,-,N/A,Snow,Light Snow,0,2013-03-21 11:15:00
7:35 AM,22.8,19.6,87,29.90,2.5,North,-9999.0,-,N/A,Snow,Light Snow,0,2013-03-21 11:35:00
7:55 AM,22.8,19.0,85,29.90,3.0,North,-9999.0,-,N/A,Snow,Light Snow,0,2013-03-21 11:55:00
8:15 AM,23.0,19.9,88,29.90,3.0,North,-9999.0,-,N/A,Snow,Light Snow,0,2013-03-21 12:15:00
8:55 AM,23.4,19.6,85,29.91,3.0,North,-9999.0,-,N/A,Snow,Light Snow,0,2013-03-21 12:55:00
9:15 AM,23.9,18.5,80,29.91,10.0,North,-9999.0,-,N/A,,Overcast,0,2013-03-21 13:15:00
9:35 AM,24.8,16.2,70,29.91,10.0,North,-9999.0,-,N/A,,Overcast,0,2013-03-21 13:35:00
9:55 AM,25.2,15.3,66,29.91,10.0,North,-9999.0,-,N/A,,Mostly Cloudy,0,2013-03-21 13:55:00
10:15 AM,25.7,14.7,63,29.91,10.0,North,-9999.0,-,N/A,,Overcast,0,2013-03-21 14:15:00
10:35 AM,25.3,14.2,63,29.92,7.0,North,-9999.0,-,N/A,,Overcast,0,2013-03-21 14:35:00
10:55 AM,26.4,13.8,59,29.91,10.0,North,-9999.0,-,N/A,,Overcast,0,2013-03-21 14:55:00
11:15 AM,26.2,14.9,62,29.92,10.0,North,-9999.0,-,N/A,,Overcast,0,2013-03-21 15:15:00
11:35 AM,25.7,15.3,65,29.92,10.0,North,-9999.0,-,N/A,,Overcast,0,2013-03-21 15:35:00
11:55 AM,25.9,15.4,65,29.92,10.0,North,-9999.0,-,N/A,,Overcast,0,2013-03-21 15:55:00
12:15 PM,28.2,18.3,66,29.92,10.0,North,-9999.0,-,N/A,,Overcast,0,2013-03-21 16:15:00
12:35 PM,27.0,18.3,70,29.92,4.0,North,-9999.0,-,N/A,Snow,Light Snow,0,2013-03-21 16:35:00
12:55 PM,27.0,16.5,65,29.93,5.0,North,-9999.0,-,N/A,Snow,Light Snow,0,2013-03-21 16:55:00
1:15 PM,28.0,16.9,63,29.92,10.0,North,-9999.0,-,N/A,,Overcast,0,2013-03-21 17:15:00
1:35 PM,27.5,19.0,71,29.92,7.0,North,-9999.0,-,N/A,Snow,Light Snow,0,2013-03-21 17:35:00
1:55 PM,28.2,20.5,73,29.92,7.0,North,-9999.0,-,N/A,Snow,Light Snow,0,2013-03-21 17:55:00
2:15 PM,27.7,19.2,71,29.92,10.0,North,-9999.0,-,N/A,,Overcast,0,2013-03-21 18:15:00
2:35 PM,28.2,18.1,66,29.92,10.0,North,-9999.0,-,N/A,,Overcast,0,2013-03-21 18:35:00
2:55 PM,26.4,21.6,82,29.92,1.0,North,-9999.0,-,N/A,Snow,Light Snow,0,2013-03-21 18:55:00
3:15 PM,27.9,22.6,81,29.92,2.0,North,-9999.0,-,N/A,Snow,Light Snow,0,2013-03-21 19:15:00
3:35 PM,28.4,22.8,80,29.93,2.0,North,-9999.0,-,N/A,Snow,Light Snow,0,2013-03-21 19:35:00
3:55 PM,28.4,23.5,82,29.93,1.2,North,-9999.0,-,N/A,Snow,Light Snow,0,2013-03-21 19:55:00
4:15 PM,28.6,22.1,77,29.94,2.5,North,-9999.0,-,N/A,Snow,Light Snow,0,2013-03-21 20:15:00
4:55 PM,27.7,20.7,75,29.94,2.0,North,-9999.0,-,N/A,Snow,Light Snow,0,2013-03-21 20:55:00
5:15 PM,30.0,19.2,64,29.95,10.0,North,-9999.0,-,N/A,,Overcast,0,2013-03-21 21:15:00
5:35 PM,28.4,21.7,76,29.95,7.0,North,-9999.0,-,N/A,Snow,Light Snow,0,2013-03-21 21:35:00
5:55 PM,28.6,21.9,76,29.96,10.0,North,-9999.0,-,N/A,,Mostly Cloudy,0,2013-03-21 21:55:00
6:15 PM,28.0,18.0,66,29.95,10.0,North,-9999.0,-,N/A,,Mostly Cloudy,0,2013-03-21 22:15:00
6:35 PM,28.2,18.7,67,29.95,10.0,North,-9999.0,-,N/A,,Mostly Cloudy,0,2013-03-21 22:35:00
6:55 PM,28.2,19.0,68,29.96,10.0,North,-9999.0,-,N/A,,Scattered Clouds,0,2013-03-21 22:55:00
7:15 PM,27.9,16.7,63,29.96,10.0,North,-9999.0,-,N/A,,Mostly Cloudy,0,2013-03-21 23:15:00
7:35 PM,27.3,19.0,71,29.98,5.0,North,-9999.0,-,N/A,Snow,Light Snow,0,2013-03-21 23:35:00
7:55 PM,26.2,19.0,74,29.98,10.0,North,-9999.0,-,N/A,,Scattered Clouds,0,2013-03-21 23:55:00
8:15 PM,26.2,18.0,71,29.99,10.0,North,-9999.0,-,N/A,,Scattered Clouds,0,2013-03-22 00:15:00
8:35 PM,26.4,18.7,73,30.00,10.0,North,-9999.0,-,N/A,,Mostly Cloudy,0,2013-03-22 00:35:00
8:55 PM,25.7,18.5,74,30.00,10.0,North,-9999.0,-,N/A,,Mostly Cloudy,0,2013-03-22 00:55:00
9:15 PM,25.0,19.4,79,30.00,10.0,North,-9999.0,-,N/A,,Scattered Clouds,0,2013-03-22 01:15:00
9:35 PM,23.7,19.9,85,30.01,10.0,North,-9999.0,-,N/A,,Clear,0,2013-03-22 01:35:00
9:55 PM,22.5,19.8,89,30.01,10.0,North,-9999.0,-,N/A,,Clear,0,2013-03-22 01:55:00
10:15 PM,21.7,19.4,91,30.01,10.0,North,-9999.0,-,N/A,,Clear,0,2013-03-22 02:15:00
10:35 PM,21.0,19.4,93,30.02,10.0,North,-9999.0,-,N/A,,Clear,0,2013-03-22 02:35:00
10:55 PM,20.7,19.2,94,30.02,10.0,North,-9999.0,-,N/A,,Clear,0,2013-03-22 02:55:00
11:15 PM,20.3,19.2,96,30.02,10.0,North,-9999.0,-,N/A,,Clear,0,2013-03-22 03:15:00
11:35 PM,19.6,18.7,96,30.02,10.0,North,-9999.0,-,N/A,,Clear,0,2013-03-22 03:35:00
11:55 PM,19.2,18.5,97,30.03,10.0,North,-9999.0,-,N/A,,Clear,0,2013-03-22 03:55:00